[[{"header":{"parameterUnit":"m.s-1","parameterCategory":1,"la1":30.2991,"la2":30.254,"lo1":-89.0895,"lo2":-89.0444,"dy":0.0017,"dx":0.0017,"nx":28,"ny":28,"refTime":"2024-03-25T03:00:00:Z","depth":0,"parameterNumber":2,"parameterNumberName":"U-component_of_WINDS"},"data":[0,0,0,0,0,0,0,0,0,0,0,0,0,0,0,0,0,0,0,0,0,0,0,0,0,0,0,0,0,0,0,0,0,0,0,0,0,0,0,0,0,0,0,0,0,0,0,0,0,0,0,0,0,0,0,0,0,0,-6.4646,-6.4647,0,-6.4731,-6.4732,-6.4733,-6.47,-6.4698,-6.4696,-6.4694,-6.4778,-6.4782,-6.4786,0,0,0,0,0,0,0,0,0,0,0,0,0,-6.4451,-6.4455,-6.4646,-6.4647,-6.4648,-6.4731,-6.4732,-6.4733,-6.47,-6.4698,-6.4695,-6.4693,-6.4777,-6.4781,-6.4786,0,0,0,0,0,0,0,0,0,0,0,0,0,-6.4536,-6.4456,-6.4645,-6.4641,-6.4642,-6.4731,-6.4732,-6.4733,-6.4701,-6.4698,-6.4695,-6.4692,-6.4775,-6.4781,-6.4787,-6.4883,0,0,-6.4805,-6.4808,0,0,0,0,0,0,0,0,-6.4531,-6.4543,-6.4641,-6.4642,-6.4643,-6.4702,-6.4694,-6.4784,-6.4701,-6.4678,-6.4694,-6.4691,-6.4755,-6.4762,-6.4785,-6.4887,-6.4891,-6.4806,-6.481,-6.4812,-6.4814,0,0,0,0,0,0,0,-6.4525,-6.4539,-6.4679,-6.4642,-6.4643,-6.4634,-6.4643,-6.4711,-6.4732,-6.468,-6.4678,-6.4689,-6.4755,-6.4779,-6.4786,-6.4892,-6.4806,-6.4811,-6.4815,-6.4817,-6.5077,-6.508,0,0,0,0,0,0,-6.452,-6.4535,-6.4677,-6.4682,-6.4579,-6.464,-6.465,-6.4686,-6.4731,-6.4735,-6.4691,-6.4687,-6.477,-6.4779,-6.4789,-6.4903,-6.4812,-6.4818,-6.4821,-6.5074,-6.5078,-6.5081,0,0,0,0,0,0,-6.4516,-6.4533,-6.4673,-6.4608,-6.4625,-6.4647,-6.4687,-6.4689,-6.4713,-6.4739,-6.4743,-6.4712,-6.4768,-6.4781,-6.486,-6.4906,-6.4821,-6.4826,-6.507,-6.5075,-6.5079,-6.5134,0,0,0,0,0,0,-6.451,-6.4531,-6.4569,-6.4609,-6.4629,-6.4744,-6.469,-6.4693,-6.4724,-6.4719,-6.476,-6.4764,-6.4767,-6.4851,-6.4866,-6.4913,-6.4831,-6.5066,-6.5072,-6.5078,-6.5128,-6.514,-6.515,0,0,0,0,0,-6.4503,-6.458,-6.4571,-6.4588,-6.4676,-6.4746,-6.4758,-6.476,-6.4728,-6.4765,-6.4782,-6.4763,-6.49,-6.486,-6.4876,-6.4925,-6.5063,-6.507,-6.5077,-6.5123,-6.5138,-6.515,0,0,0,0,0,0,-6.4544,-6.4585,-6.4575,-6.4668,-6.4704,-6.4741,-6.4787,-6.4776,-6.4821,-6.4814,-6.4814,-6.4824,-6.4905,-6.4924,-6.4879,-6.5021,-6.4976,-6.4987,-6.5005,-6.5019,-6.503,-6.5022,-6.4836,0,0,0,0,0,-6.4564,-6.4618,-6.4652,-6.473,-6.4749,-6.4766,-6.4796,-6.4795,-6.4832,-6.4847,-6.4869,-6.4905,-6.4956,-6.4989,-6.5037,-6.5132,-6.5139,-6.5174,-6.5185,-6.5194,-6.5202,-6.5252,-6.5267,-6.5105,-6.5105,-6.5105,0,0,-6.4605,-6.4634,-6.4668,-6.4739,-6.4767,-6.4822,-6.4778,-6.4839,-6.4879,-6.4855,-6.4931,-6.495,-6.499,-6.5077,-6.5116,-6.5094,-6.5249,-6.5203,-6.521,-6.5214,-6.5261,-6.5276,-6.5289,-6.511,-6.5109,-6.5108,0,0,-6.4707,-6.4736,-6.4804,-6.4833,-6.4876,-6.4887,-6.4904,-6.4943,-6.4954,-6.5031,-6.5014,-6.5062,-6.515,-6.5179,-6.5205,-6.532,-6.5302,-6.5336,-6.5392,-6.544,-6.5453,-6.5464,-6.5503,-6.5517,-6.5345,-6.5345,-6.5345,0,-6.4752,-6.4835,-6.484,-6.4902,-6.4932,-6.4916,-6.4983,-6.5011,-6.5067,-6.5088,-6.5064,-6.5174,-6.52,-6.5292,-6.532,-6.5343,-6.536,-6.5329,-6.5451,-6.5463,-6.5473,-6.551,-6.5524,-6.5348,-6.5348,-6.5348,-6.5347,0,-6.4887,-6.4946,-6.4995,-6.5051,-6.5088,-6.5152,-6.5165,-6.5202,-6.5198,-6.5211,-6.5289,-6.532,-6.5374,-6.5396,-6.5393,-6.5489,-6.5473,-6.5451,-6.5405,-6.5492,-6.5526,-6.554,-6.5353,-6.5352,-6.5351,-6.535,0,0,-6.5014,-6.5073,-6.5091,-6.5116,-6.5163,-6.5207,-6.5271,-6.5325,-6.5355,-6.5396,-6.5447,-6.5523,-6.5502,-6.5532,-6.5532,-6.5575,-6.5661,-6.5547,-6.5548,-6.5564,-6.5765,-6.578,-6.5796,-6.5652,-6.5655,-6.5657,-6.5761,0,-6.5118,-6.5231,-6.5237,-6.5338,-6.5391,-6.5376,-6.5432,-6.5466,-6.5481,-6.5527,-6.5543,-6.5595,-6.5565,-6.5583,-6.5625,-6.5642,-6.5701,-6.5635,-6.5698,-6.57,-6.5685,-6.5815,-6.583,-6.5927,-6.5775,-6.5777,-6.5779,0,-6.5254,-6.5299,-6.5406,-6.5445,-6.5467,-6.5517,-6.5566,-6.5612,-6.565,-6.5657,-6.5692,-6.5686,-6.575,-6.5705,-6.5792,-6.5747,-6.5774,-6.5786,-6.579,-6.5793,-6.5742,-6.5818,-6.5958,-6.5971,-6.5801,-6.5799,-6.5797,0,-6.5332,-6.542,-6.5495,-6.5517,-6.5565,-6.56,-6.5622,-6.5658,-6.569,-6.5733,-6.5753,-6.5804,-6.583,-6.5869,-6.5876,-6.5844,-6.5963,-6.5919,-6.5969,-6.5968,-6.5991,-6.5989,-6.6134,-6.6014,-6.6014,-6.6014,-6.6013,0,-6.5446,-6.5511,-6.5531,-6.5576,-6.5649,-6.5655,-6.5726,-6.5746,-6.5778,-6.5826,-6.5818,-6.5863,-6.5872,-6.5919,-6.5926,-6.5995,-6.6008,-6.6014,-6.6015,-6.6013,-6.6012,-6.6028,-6.602,-6.6018,-6.6017,-6.6016,-6.6015,0,-6.5544,-6.556,-6.564,-6.5681,-6.5692,-6.5743,-6.5777,-6.582,-6.5835,-6.5896,-6.591,-6.5932,-6.5987,-6.6,-6.6065,-6.6069,-6.6151,-6.6147,-6.6138,-6.6136,-6.6184,-6.6178,-6.6342,-6.6363,-6.6232,-6.6233,-6.6234,0,-6.5614,-6.5663,-6.5709,-6.5741,-6.5765,-6.5817,-6.5849,-6.5859,-6.5893,-6.5941,-6.5978,-6.6032,-6.6075,-6.6164,-6.6184,-6.6234,-6.6229,-6.6283,-6.6236,-6.6232,-6.6226,-6.6221,-6.6225,-6.629,-6.6292,-6.6293,-6.6294,0,-6.5734,-6.574,-6.5788,-6.5839,-6.5879,-6.5919,-6.5958,-6.5984,-6.5998,-6.6037,-6.6094,-6.6127,-6.6194,-6.6247,-6.6297,-6.6318,-6.6308,-6.6309,-6.6322,-6.632,-6.6312,-6.6314,-6.6159,-6.6304,-6.6303,-6.6302,-6.6302,-6.6301,-6.5819,-6.5862,-6.5901,-6.5954,-6.5984,-6.6021,-6.6063,-6.6083,-6.6131,-6.6186,-6.6189,-6.625,-6.6287,-6.6353,-6.6377,-6.6424,-6.6407,-6.6427,-6.6432,-6.6436,-6.6439,-6.6307,-6.6434,-6.6433,-6.6433,-6.6433,-6.6433,0,-6.5937,-6.5961,-6.6011,-6.6065,-6.6107,-6.6096,-6.6138,-6.6173,-6.6227,-6.6263,-6.6307,-6.6371,-6.6423,-6.6449,-6.65,-6.6532,-6.6529,-6.6545,-6.6541,-6.6545,-6.6452,-6.6434,-6.6547,-6.6547,-6.6547,-6.6547,-6.6547,-6.6547,-6.6003,-6.6074,-6.6085,-6.6171,-6.6195,-6.6256,-6.628,-6.6313,-6.6342,-6.6414,-6.6458,-6.6475,-6.6507,-6.656,-6.6606,-6.6613,-6.663,-6.6649,-6.6652,-6.6564,-6.6552,-6.6541,-6.6524,-6.6653,-6.6653,-6.6741,-6.6742,-6.6742]},{"header":{"parameterUnit":"m.s-1","parameterCategory":1,"la1":30.2991,"la2":30.254,"lo1":-89.0895,"lo2":-89.0444,"dy":0.0017,"dx":0.0017,"nx":28,"ny":28,"refTime":"2024-03-25T03:00:00:Z","depth":0,"parameterNumber":3,"parameterNumberName":"V-component_of_WINDS"},"data":[0,0,0,0,0,0,0,0,0,0,0,0,0,0,0,0,0,0,0,0,0,0,0,0,0,0,0,0,0,0,0,0,0,0,0,0,0,0,0,0,0,0,0,0,0,0,0,0,0,0,0,0,0,0,0,0,0,0,4.3743,4.3744,0,4.3832,4.3833,4.3834,4.3839,4.3838,4.3837,4.3836,4.3924,4.3927,4.3931,0,0,0,0,0,0,0,0,0,0,0,0,0,4.3576,4.3579,4.3743,4.3744,4.3745,4.3832,4.3833,4.3834,4.3839,4.3838,4.3837,4.3836,4.3923,4.3927,4.3931,0,0,0,0,0,0,0,0,0,0,0,0,0,4.3655,4.358,4.3743,4.3758,4.376,4.3832,4.3833,4.3835,4.3839,4.3838,4.3836,4.3835,4.3922,4.3926,4.3931,4.3992,0,0,4.3946,4.3949,0,0,0,0,0,0,0,0,4.365,4.3661,4.3755,4.3757,4.376,4.3823,4.3807,4.3888,4.384,4.3809,4.3836,4.3834,4.3891,4.3899,4.3919,4.3997,4.4,4.3947,4.395,4.3952,4.3953,0,0,0,0,0,0,0,4.3645,4.3657,4.3778,4.3756,4.3759,4.376,4.377,4.3822,4.3858,4.3812,4.3812,4.3823,4.3893,4.3914,4.3921,4.4002,4.3947,4.3951,4.3954,4.3956,4.4136,4.4138,0,0,0,0,0,0,4.3637,4.3653,4.3775,4.3781,4.37,4.3764,4.3775,4.3804,4.3857,4.3864,4.3824,4.3823,4.3906,4.3915,4.3924,4.4001,4.3952,4.3957,4.3959,4.4135,4.4137,4.4139,0,0,0,0,0,0,4.3633,4.3648,4.3772,4.3717,4.3733,4.3769,4.3802,4.3807,4.3828,4.3867,4.3873,4.384,4.3905,4.3917,4.3976,4.4004,4.3959,4.3963,4.4132,4.4135,4.4138,4.4153,0,0,0,0,0,0,4.3628,4.3646,4.367,4.3718,4.3736,4.3823,4.3803,4.381,4.3837,4.3836,4.3883,4.3889,4.3905,4.3969,4.3981,4.401,4.3967,4.413,4.4134,4.4137,4.415,4.4156,4.4161,0,0,0,0,0,4.3622,4.3669,4.3671,4.3686,4.3766,4.3824,4.3835,4.3853,4.3839,4.3864,4.3889,4.3888,4.3999,4.3975,4.3989,4.4019,4.4128,4.4133,4.4137,4.4148,4.4155,4.4161,0,0,0,0,0,0,4.3622,4.3676,4.3678,4.3742,4.3779,4.3825,4.3856,4.386,4.39,4.3897,4.3918,4.3928,4.3987,4.4009,4.3981,4.4082,4.4062,4.4069,4.4066,4.4073,4.4078,4.4071,4.3971,0,0,0,0,0,4.363,4.3674,4.3718,4.377,4.3789,4.3819,4.3845,4.3857,4.3895,4.391,4.3939,4.3976,4.4019,4.4047,4.4089,4.4154,4.4164,4.4182,4.4187,4.4191,4.4197,4.4235,4.4243,4.4152,4.4152,4.4152,0,0,4.3646,4.3681,4.3706,4.3771,4.3801,4.3845,4.3832,4.3879,4.3912,4.3917,4.3975,4.3998,4.404,4.4103,4.4132,4.4123,4.4225,4.4196,4.4199,4.4203,4.424,4.4248,4.4256,4.4155,4.4155,4.4154,0,0,4.3698,4.3728,4.3776,4.3807,4.3853,4.3874,4.3885,4.3932,4.3948,4.4007,4.4012,4.4051,4.4125,4.4156,4.4181,4.4247,4.4248,4.426,4.4288,4.4324,4.4331,4.4338,4.4363,4.4371,4.4266,4.4266,4.4266,0,4.3712,4.378,4.38,4.3848,4.3877,4.3885,4.3934,4.3962,4.4019,4.4039,4.4028,4.4123,4.4151,4.4222,4.4239,4.4259,4.4273,4.4255,4.4329,4.4336,4.4342,4.4366,4.4375,4.4267,4.4267,4.4267,4.4267,0,4.3795,4.3842,4.3875,4.3932,4.3964,4.4012,4.404,4.407,4.408,4.4101,4.4162,4.4198,4.4248,4.4266,4.4274,4.4339,4.4332,4.4325,4.4305,4.4352,4.4374,4.4384,4.4269,4.4269,4.4268,4.4268,0,0,4.3848,4.3917,4.3929,4.3956,4.4009,4.4045,4.4094,4.4145,4.4171,4.421,4.4252,4.4316,4.4311,4.4339,4.4352,4.4384,4.4436,4.4373,4.4374,4.4384,4.4511,4.4516,4.4526,4.4437,4.4439,4.444,4.4507,0,4.3906,4.3995,4.4016,4.4091,4.4136,4.4145,4.4188,4.4225,4.4247,4.4288,4.4312,4.4357,4.4347,4.4364,4.4396,4.4423,4.4462,4.4418,4.4476,4.4478,4.4466,4.4538,4.4543,4.4605,4.4516,4.4518,4.4519,0,4.3986,4.4029,4.411,4.4159,4.4178,4.4216,4.4266,4.4305,4.4347,4.4361,4.4394,4.4404,4.4456,4.4434,4.4506,4.4476,4.4501,4.4518,4.4521,4.4527,4.4501,4.4547,4.4624,4.4634,4.4533,4.4532,4.4531,0,4.4018,4.4096,4.4155,4.4178,4.4236,4.4263,4.4288,4.4329,4.4359,4.4402,4.4422,4.4469,4.4496,4.4532,4.4555,4.4537,4.4625,4.4605,4.4639,4.4638,4.4657,4.4655,4.474,4.4672,4.4672,4.4672,4.4672,0,4.4081,4.413,4.4171,4.4207,4.4263,4.4287,4.4341,4.4367,4.4404,4.4445,4.4456,4.4494,4.4521,4.4564,4.4582,4.4639,4.4651,4.4663,4.4668,4.4663,4.4661,4.468,4.4676,4.4674,4.4674,4.4673,4.4673,0,4.4126,4.4155,4.4221,4.4271,4.4285,4.4324,4.4367,4.4403,4.4426,4.4479,4.4492,4.4528,4.4579,4.4606,4.4668,4.468,4.4746,4.4747,4.4732,4.4734,4.4766,4.4763,4.4866,4.4882,4.4803,4.4803,4.4804,0,4.4165,4.4203,4.4259,4.4288,4.4315,4.4361,4.4393,4.4418,4.445,4.4503,4.4532,4.4584,4.4627,4.4708,4.4739,4.4788,4.4791,4.4824,4.4798,4.4793,4.4792,4.479,4.4795,4.4828,4.4829,4.4829,4.483,0,4.4231,4.4244,4.4289,4.4341,4.4378,4.4419,4.4459,4.4482,4.4514,4.455,4.4603,4.4636,4.4702,4.4753,4.4805,4.483,4.4836,4.4838,4.4848,4.4844,4.4834,4.4841,4.4745,4.4835,4.4835,4.4834,4.4834,4.4834,4.4275,4.431,4.4356,4.4406,4.444,4.4478,4.4515,4.4544,4.4589,4.4645,4.4657,4.4713,4.4757,4.4827,4.4854,4.4898,4.4891,4.4906,4.491,4.4914,4.4916,4.4827,4.4908,4.4907,4.4907,4.4907,4.4907,0,4.4343,4.4373,4.4419,4.4477,4.4517,4.452,4.4565,4.4598,4.4648,4.4689,4.4731,4.4793,4.4844,4.488,4.4932,4.496,4.4964,4.4973,4.4971,4.4978,4.4918,4.4905,4.4969,4.4969,4.4969,4.4969,4.4969,4.4969,4.4383,4.4444,4.4462,4.454,4.457,4.4626,4.4652,4.4688,4.4721,4.4789,4.4832,4.4856,4.4895,4.495,4.4997,4.5007,4.5025,4.5034,4.5044,4.4988,4.4981,4.4975,4.4962,4.5038,4.5038,4.51,4.51,4.5101]}]]